Theta_e
292 287 285 289 290 291 284 283 283 289 291 288 289 290 293 297 295 293 295 297 298 299 301 301 298 297 297 296 296 295 293 294 294 292 290 291 291 291 290 290 290 288 288 288
288 285 291 290 289 289 287 286 286 290 292 287 288 288 292 294 295 297 298 298 297 299 301 301 296 294 296 296 296 295 294 294 294 294 294 293 293 290 291 289 288 288 287 287
287 290 293 290 288 287 285 284 287 286 288 287 285 286 288 292 294 297 298 299 299 298 299 300 298 293 295 296 296 295 295 294 294 295 293 287 287 285 285 285 287 287 287 286
288 292 290 287 287 288 285 289 289 288 283 282 285 280 284 289 289 291 294 296 297 298 299 299 299 293 293 296 297 296 295 294 294 294 292 291 290 289 289 290 289 287 286 285
286 287 286 286 289 289 287 289 287 285 282 280 281 279 283 287 287 290 294 296 297 299 297 298 298 296 294 295 295 295 294 293 293 293 293 292 291 291 288 286 285 286 285 286
288 289 289 289 289 289 288 286 284 282 281 277 283 282 283 283 287 289 291 293 295 295 297 296 295 293 293 292 293 293 292 291 292 292 292 291 291 288 285 286 285 285 285 284
283 286 289 290 286 286 287 283 277 275 274 279 282 281 287 288 291 290 292 293 295 294 294 293 292 291 292 291 292 291 291 290 291 290 291 291 291 288 288 286 286 285 284 284
280 283 286 288 288 286 284 285 278 270 275 281 280 278 288 290 291 292 291 291 292 292 293 293 293 292 291 291 290 291 290 290 290 290 290 290 291 289 289 287 287 286 286 286
282 282 286 287 288 289 283 281 287 279 269 273 282 284 291 292 288 289 290 289 289 290 290 290 291 290 290 289 289 290 289 290 290 289 290 289 289 289 288 287 287 287 286 285
286 283 286 284 285 286 286 286 280 279 272 270 278 279 282 288 289 290 290 291 292 291 290 289 289 290 289 289 289 288 288 290 289 289 290 290 289 289 288 286 286 286 285 284
289 287 286 287 285 287 282 281 282 283 282 279 277 281 292 292 294 292 291 290 290 291 291 290 291 291 290 288 288 288 288 288 287 288 289 289 289 289 288 286 286 286 284 283
290 288 282 286 291 288 286 286 286 282 280 282 282 283 293 295 296 295 295 292 290 290 289 290 290 290 291 290 288 288 288 287 288 289 288 288 288 287 287 286 285 285 284 283
291 286 282 283 285 286 284 287 288 288 286 281 277 281 294 294 295 296 295 294 290 290 292 292 292 292 291 290 290 289 289 289 289 287 287 286 286 286 286 286 285 284 283 282
296 290 286 281 284 287 283 284 286 287 282 282 283 284 289 292 292 294 295 296 294 294 293 291 291 291 291 290 290 290 290 291 289 287 286 286 286 286 287 287 285 283 283 282
289 284 286 287 286 286 286 286 287 285 285 282 284 285 289 291 292 294 296 296 295 291 289 288 288 289 290 290 291 290 291 288 288 287 286 286 287 287 286 285 284 283 282 282
285 279 282 279 282 283 283 286 286 286 286 286 287 286 293 292 289 289 289 288 287 286 287 288 288 288 287 287 288 289 290 287 287 287 287 287 286 285 285 284 283 282 281 280
279 278 276 273 278 277 274 280 282 283 286 285 281 281 281 280 280 281 284 283 283 284 285 286 287 287 287 286 286 286 286 287 286 286 287 286 285 284 284 283 281 280 279 279
276 274 271 270 272 265 275 282 283 281 278 277 278 279 281 279 281 284 283 282 282 284 285 286 286 286 287 286 286 284 283 283 284 285 286 284 284 283 282 280 279 279 279 278
279 277 272 269 267 274 278 277 275 273 274 277 276 278 279 280 280 280 283 282 282 284 286 285 285 286 287 286 285 282 282 281 280 281 281 280 280 280 278 278 277 278 278 277
276 279 274 272 267 265 271 276 280 278 271 277 279 278 277 278 271 274 280 281 281 283 283 283 284 285 285 286 285 282 282 280 280 280 280 278 279 278 277 278 276 277 277 277
261 259 260 262 262 268 273 275 277 266 267 276 279 279 278 275 277 280 281 280 280 281 282 282 282 281 283 284 284 282 282 281 279 277 276 275 276 278 278 277 276 276 276 275
265 259 257 256 254 258 276 275 270 273 277 279 276 276 275 277 278 277 277 277 278 278 278 278 278 279 280 282 283 283 282 281 275 274 274 274 273 273 276 275 274 274 274 273
266 269 263 266 265 274 275 275 278 279 278 277 276 276 276 274 274 275 275 276 275 275 276 277 276 276 278 280 281 280 282 280 277 275 275 275 276 275 275 273 273 273 273 273
272 275 270 266 273 274 276 278 278 278 278 277 276 274 274 273 274 274 273 273 274 273 273 274 274 273 273 275 274 275 277 281 278 277 276 275 275 274 274 274 274 274 273 272
273 273 269 270 274 275 277 277 277 276 275 275 274 273 272 272 272 272 271 271 271 272 272 272 271 271 270 271 271 273 274 276 277 278 277 274 274 273 273 273 273 274 274 275
276 273 271 269 276 275 276 278 275 274 274 272 271 270 272 272 270 271 269 270 270 269 269 268 268 268 268 268 268 269 269 271 272 273 277 274 274 273 273 272 272 278 277 278
Wind_Speed
3 5 11 21 15 15 4 6 8 16 9 4 11 19 18 21 13 15 16 19 21 21 25 16 12 13 13 13 17 19 18 19 15 12 11 9 13 9 7 8 11 11 9 10
3 10 19 1 3 7 10 15 17 17 21 6 17 23 20 17 22 24 23 21 22 22 21 19 10 10 16 18 20 18 20 19 17 14 13 7 10 6 8 7 7 10 10 10
12 11 10 6 4 10 4 8 18 17 9 7 9 17 15 16 19 25 27 27 21 21 24 23 13 12 12 16 19 20 22 23 20 18 10 4 6 4 3 4 6 8 11 11
8 7 10 5 7 11 15 13 15 13 3 9 4 16 9 10 12 12 20 18 18 19 21 19 17 10 14 17 14 16 18 19 18 20 17 20 13 12 10 11 9 9 12 12
11 4 4 6 16 9 11 4 7 4 5 6 6 7 2 8 8 16 20 18 20 21 12 19 18 10 12 11 15 15 15 17 19 19 19 17 16 11 6 5 11 11 10 12
9 2 5 9 5 10 1 2 2 4 2 9 13 9 4 7 8 7 8 12 14 15 15 12 8 6 9 7 10 12 15 16 18 19 20 22 20 13 10 11 11 11 9 9
2 6 4 5 3 2 5 5 5 5 1 15 5 7 16 5 10 10 12 12 13 11 11 11 11 7 8 10 10 10 15 17 17 18 19 19 17 16 18 15 12 13 10 9
3 12 8 6 9 9 9 12 9 9 11 16 5 11 18 10 7 9 9 8 9 11 11 13 14 10 10 8 9 12 15 15 16 17 18 15 15 10 10 12 10 11 12 12
4 11 3 6 5 9 4 7 5 1 1 2 11 18 20 15 9 6 7 5 9 10 9 11 13 8 7 6 6 8 11 13 15 16 14 15 15 15 14 12 11 10 9 9
4 15 7 1 2 2 7 0 2 1 4 9 10 7 17 19 15 10 8 11 9 9 11 8 8 8 1 4 4 6 6 10 10 13 14 13 14 14 12 12 15 13 10 11
5 6 15 5 7 18 0 4 4 2 7 16 17 13 24 27 26 14 12 8 9 12 9 10 8 7 4 2 4 6 7 9 8 10 12 13 13 14 12 13 14 14 12 14
6 4 7 26 16 6 6 13 15 14 12 14 20 20 11 22 25 20 22 7 9 9 10 8 7 6 5 7 8 10 8 10 12 12 13 14 11 12 14 14 14 14 15 14
4 5 10 9 8 2 6 13 12 17 15 19 18 13 13 16 24 32 25 19 8 10 9 9 10 7 7 8 8 8 11 15 12 10 12 10 11 13 17 17 15 15 15 15
8 17 17 18 20 18 8 7 9 16 14 22 25 28 20 22 25 28 28 24 14 9 7 6 7 10 9 7 8 8 11 12 10 11 12 14 16 18 18 15 15 15 15 15
3 6 11 13 13 18 21 21 24 30 28 27 25 27 21 18 23 26 27 25 17 17 18 16 15 14 16 17 15 10 11 7 10 12 13 17 18 15 14 14 14 14 16 15
2 8 14 22 24 20 21 22 24 22 22 26 33 33 23 17 21 19 20 18 17 16 17 17 16 17 17 16 17 17 17 9 8 10 14 14 12 13 15 14 14 14 14 13
7 6 9 23 27 21 17 25 23 21 22 17 17 12 19 16 18 20 14 19 19 19 20 19 16 17 16 17 15 17 19 18 10 12 12 10 10 12 13 12 13 14 15 14
17 16 6 14 17 16 10 5 9 11 11 13 10 12 12 14 18 8 15 18 19 19 17 16 15 17 16 15 15 16 15 15 13 14 10 8 10 12 12 13 14 13 13 15
15 12 7 6 9 15 18 8 8 8 6 11 13 14 11 14 17 16 16 16 16 17 14 14 15 16 15 15 15 16 16 13 11 9 5 4 6 8 9 10 12 12 12 12
5 4 8 6 8 7 3 3 5 10 9 7 6 6 10 14 14 15 19 19 16 14 15 15 14 15 14 16 13 15 16 14 13 10 8 2 5 6 9 8 8 8 9 9
4 4 4 6 5 7 1 11 7 2 8 17 2 3 8 10 8 20 19 16 14 13 15 16 14 16 15 13 14 15 14 14 11 8 6 5 2 3 5 8 7 8 9 8
3 2 4 1 0 9 3 15 2 7 6 8 3 4 8 13 14 15 18 17 17 17 16 15 15 15 14 14 14 17 15 10 6 3 4 4 1 1 4 7 6 8 9 10
7 8 7 9 10 6 5 11 15 8 8 5 4 7 4 10 13 14 14 18 17 16 14 13 13 16 18 14 14 17 17 10 7 4 3 3 3 3 5 7 9 7 8 8
8 9 8 3 18 16 13 15 12 11 7 5 6 5 5 11 13 13 14 17 15 16 15 14 16 18 17 13 17 15 17 16 10 10 7 5 6 6 5 5 6 7 10 9
8 4 8 15 17 18 18 15 7 5 6 6 4 7 11 10 14 12 14 16 16 17 16 14 16 17 18 15 16 13 15 16 16 14 9 7 6 8 7 7 8 9 8 10
10 18 13 16 21 16 17 17 1 8 9 4 9 14 12 10 16 15 17 16 15 17 17 17 19 19 20 19 19 16 14 15 16 17 11 7 6 7 7 7 6 17 14 18
Wind_Direction
209 131 209 222 203 224 190 224 227 257 256 223 235 261 260 272 273 266 260 258 262 254 257 253 228 204 203 195 191 190 185 192 178 181 177 187 199 194 194 191 185 179 176 175
83 219 231 146 165 219 236 252 261 273 267 206 262 260 261 258 258 263 263 258 252 260 267 264 241 195 197 198 197 190 195 187 189 189 192 194 188 197 195 181 181 183 176 172
206 230 224 186 181 239 232 230 258 261 315 232 278 270 243 248 249 259 267 262 267 256 260 260 251 211 208 205 195 195 194 189 188 185 169 100 89 67 119 176 188 190 180 178
231 254 212 139 225 212 262 227 256 269 331 271 18 291 179 225 230 244 253 264 262 265 261 268 264 214 196 219 207 202 192 191 187 176 176 183 189 185 194 193 188 180 181 181
241 190 158 194 226 159 243 212 230 217 212 327 195 258 97 169 236 244 255 266 268 267 264 265 265 239 215 193 197 200 190 183 181 184 187 186 192 190 154 148 164 181 187 188
250 340 187 217 216 181 46 68 60 42 90 273 200 187 57 162 210 260 248 253 258 270 280 268 299 222 230 207 183 181 185 188 184 184 186 192 193 172 155 168 173 180 185 186
225 212 232 182 259 161 140 85 306 320 52 251 112 191 251 256 254 213 244 260 272 296 306 313 296 256 240 218 196 178 182 191 187 184 189 194 195 184 186 175 179 174 178 190
235 287 186 172 196 196 189 170 173 214 254 272 94 253 269 229 245 233 247 279 293 298 293 292 293 264 249 205 183 184 187 185 182 189 194 191 193 189 193 185 179 186 192 191
211 265 200 221 173 159 170 192 233 317 338 270 256 270 291 261 248 265 271 285 281 303 312 311 307 293 297 256 225 202 182 187 188 193 190 191 191 188 190 181 180 185 185 177
289 285 187 76 324 259 178 252 39 317 208 243 256 252 253 275 268 276 300 294 305 307 310 314 311 291 285 260 223 181 201 202 193 196 197 201 197 195 184 174 186 183 174 163
193 219 260 25 210 240 167 247 221 249 209 251 260 251 264 273 277 282 278 280 296 297 305 325 330 300 276 215 210 216 198 197 186 197 203 197 196 197 192 195 189 183 170 172
220 194 233 268 256 220 193 242 238 240 247 239 252 247 284 282 295 297 291 271 253 261 285 285 254 281 261 223 209 204 207 210 201 195 200 207 200 193 195 195 190 181 182 180
198 231 259 283 289 186 209 226 239 260 280 260 265 268 270 287 292 293 291 297 268 249 266 298 316 296 263 252 243 216 205 217 206 195 205 195 196 198 207 202 193 185 179 180
276 237 243 246 265 282 256 244 225 236 256 268 266 274 265 274 276 281 290 291 294 313 308 290 307 302 291 270 252 238 238 223 209 199 192 202 199 202 207 207 193 185 187 182
340 273 276 286 300 294 289 285 282 276 274 262 273 275 273 273 278 287 293 299 324 14 17 14 11 3 355 352 339 296 265 233 195 196 206 211 212 209 204 196 192 181 186 188
328 281 303 289 281 275 276 275 269 277 278 275 274 276 285 335 359 356 8 28 24 7 348 349 347 347 349 347 339 333 326 275 225 238 236 227 211 199 198 190 185 182 183 183
255 267 283 277 285 296 274 257 272 266 268 287 294 360 4 3 350 338 25 14 357 346 340 340 340 337 333 332 331 331 326 318 282 236 234 219 203 203 199 190 177 180 180 175
254 264 250 270 294 264 259 327 299 324 31 20 3 9 347 3 334 84 31 9 346 335 334 335 334 325 325 324 325 326 321 318 312 275 244 210 201 203 191 176 182 177 178 182
222 243 258 248 224 268 292 15 14 2 335 18 360 340 0 337 322 319 351 348 327 322 324 329 321 317 319 321 327 326 321 323 320 302 266 178 182 180 176 186 180 173 173 178
75 217 238 287 297 284 131 308 290 269 248 44 335 351 339 335 331 307 330 324 318 316 315 314 319 314 312 318 326 324 320 323 329 319 295 203 160 166 177 173 168 169 174 175
359 347 204 266 274 283 120 2 325 359 296 335 52 318 317 316 286 299 316 312 313 312 314 320 320 313 312 319 317 312 318 327 324 324 331 328 348 179 172 150 152 152 156 158
174 184 232 82 147 280 315 345 89 251 299 268 278 282 310 315 309 305 312 316 319 317 321 320 311 303 310 318 316 308 313 314 314 352 325 298 354 117 153 146 134 149 153 159
261 196 217 187 214 254 310 268 282 263 248 245 261 282 314 297 294 301 301 307 308 308 312 306 300 310 317 324 326 319 313 319 308 303 265 256 271 214 175 153 146 155 163 170
239 225 240 7 268 262 269 274 263 284 240 262 265 280 293 285 288 294 301 299 304 306 306 311 313 304 300 319 307 298 311 322 291 273 250 195 209 203 186 172 174 176 174 181
238 139 224 253 272 278 269 264 249 247 272 265 272 281 286 277 278 288 286 287 294 297 300 307 302 299 296 296 288 310 316 320 313 289 272 227 208 209 200 202 193 191 208 204
240 248 251 257 268 267 273 279 355 287 285 268 293 293 286 282 287 291 284 286 289 291 300 302 300 298 299 305 302 307 309 302 297 293 287 242 227 212 210 199 210 220 204 207